星链-35203 (STARLINK-35203)

导读

STARLINK-35203是美国SpaceX公司星链星座的一颗低轨通信卫星,于2025年9月5日由猎鹰9号火箭从肯尼迪航天中心发射入轨。它是SpaceX星链星座的成员,依托星链成熟的相控阵通信技术,为全球偏远区域、地面网络覆盖盲区提供高速宽带互联网接入服务,也可直接支持手机直连卫星的通信服务,属于第二代星链卫星星座部署的一员,支撑全球宽带卫星通信网络的规模扩展。

基本信息
目录编号:
65498
目录名称:
STARLINK-35203
国际标识:
2025-198G
轨道中心:
EARTH
卫星名称:
星链-35203
卫星全名:
星链-35203 (STARLINK-35203)
卫星状态:
在轨 (已飞行364 天)
发射日期:
2025-09-05 UTC
国别 :
美国 (US)
星等 :
--
轨道信息
数据来源 国际轨道数据
星历时间: 2026-09-04T02:17:21+0800
11小时前
查看轨道信息
半长轴: 6840.792km
偏心率: 0.0001261
轨道倾角: 53.159°
近地点辐角 99.176°
升交点赤经 161.754°
平近点角 260.938°
近地点: 461.792km
远地点: 463.518km
周期: 93.847分钟
每日圈数: 15.344164
详细信息
固有亮度:
5
最大亮度:
2.5
卫星平台:
Starlink V1.0
覆盖范围:
全球
运营商:
太空探索技术公司
运营商所在国:
美国
制造商(研发单位):
太空探索技术公司
制造商所在国:
美国
使用方式:
暂无
卫星简介
Starlink 计划是 SpaceX 推出的全球卫星互联网项目,通过发射低轨道卫星,为全球尤其是偏远地区提供高速、低延迟的互联网服务。自 2019 年起,Starlink 已部署数千颗卫星,旨在缩小全球数字鸿沟,推动互联网普及。该项目还为军事、航空等行业提供通信支持,带来广泛经济效益。
2D轨道图
3D轨道图
轨道高度分析图
轨道倾角分析图
轨道综合分析图
查看轨道综合分析图